DONNÉES MÉTÉO

HIER
Time Temp. Dewp. Hum. Bar.
00:02 22.7 18 75 1020.4
00:12 22.7 18 75 1020.3
00:22 22.7 18 75 1020.3
00:32 22.6 17.9 75 1020.2
00:42 22.6 17.7 74 1020.2
00:52 22.6 17.7 74 1020.2
01:03 22.5 17.4 73 1020.1
01:13 22.5 17.2 72 1020.2
01:22 22.4 17.1 72 1020.1
01:33 22.4 16.9 71 1020.1
01:43 22.3 16.6 70 1020
01:53 22.3 16.6 70 1019.9
02:03 22.3 16.6 70 1019.7
02:13 22.2 16.2 69 1019.6
02:23 22.2 16.2 69 1019.5
02:33 22.1 16.2 69 1019.4
02:43 22 16.1 69 1019.3
02:54 22 15.8 68 1019.3
03:03 21.9 15.7 68 1019.4
03:13 21.9 15.7 68 1019.3
03:24 21.8 15.6 68 1019.3
03:34 21.8 15.4 67 1019.2
03:44 21.8 15.4 67 1019.1
03:53 21.7 15.3 67 1019.1
04:04 21.7 15.5 68 1019.2
04:14 21.7 15.5 68 1019.2
04:24 21.7 15.5 68 1019.1
04:35 21.6 15.4 68 1019.1
04:44 21.6 15.4 68 1019.2
04:54 21.6 15.4 68 1019.2
05:04 21.6 15.4 68 1019.2
05:15 21.5 15.1 67 1019.1
05:25 21.5 15.1 67 1019.2
05:34 21.4 15 67 1019.1
05:45 21.4 15 67 1019.2
05:55 21.4 15 67 1019.1
06:05 21.3 15.2 68 1019.1
06:15 21.3 15.2 68 1019.1
06:26 21.3 15.4 69 1019.1
06:35 21.2 14.8 67 1019.2
06:45 21.2 14.8 67 1019.3
06:56 21.2 14.8 67 1019.5
07:06 21.1 14.7 67 1019.6
07:16 21.1 14.7 67 1019.7
07:25 21.1 14.7 67 1019.8
07:36 21.1 14.7 67 1019.8
07:46 21.1 14.7 67 1019.9
07:56 21.1 14.7 67 1020
08:06 21.1 15 68 1020.1
08:16 21.2 15.1 68 1020.1
08:26 21.3 15.2 68 1020.2
08:36 21.3 15.4 69 1020.2
08:47 21.4 15.7 70 1020.2
08:56 21.5 15.8 70 1020.4
09:06 21.5 15.8 70 1020.6
09:16 21.6 15.9 70 1020.7
09:27 21.6 15.9 70 1020.7
09:37 21.7 16 70 1020.6
09:46 21.7 16.2 71 1020.7
09:57 21.8 16.3 71 1020.8
10:07 21.8 16.3 71 1020.8
10:17 21.8 16.3 71 1020.8
10:27 21.9 16.4 71 1020.9
10:37 21.9 16.6 72 1020.9
10:47 22 16.7 72 1020.9
10:57 22 16.7 72 1020.9
11:08 22.1 16.8 72 1021
11:18 22.1 16.8 72 1021
11:27 22.1 16.8 72 1021.2
11:37 22.2 16.9 72 1021.2
11:48 22.2 16.9 72 1021.3
11:58 22.2 16.9 72 1021.3
12:08 22.2 16.9 72 1021.3
12:18 22.2 16.7 71 1021.5
12:28 22.2 16.7 71 1021.6
12:38 22.2 16.9 72 1021.7
12:48 22.3 16.8 71 1021.8
12:59 22.3 17 72 1021.8
13:08 22.3 17 72 1021.6
13:18 22.3 16.8 71 1021.6
13:29 22.4 16.7 70 1021.6
13:39 22.5 16.5 69 1021.7
13:48 22.5 16.8 70 1021.6
13:58 22.5 16.8 70 1021.6
14:09 22.5 16.8 70 1021.6
14:19 22.6 16.9 70 1021.6
14:29 22.6 17.1 71 1021.6
14:39 22.6 16.9 70 1021.7
14:49 22.6 17.1 71 1021.5
14:59 22.6 17.1 71 1021.4
15:09 22.6 17.1 71 1021.3
15:20 22.7 17 70 1021.3
15:29 22.7 17 70 1021.2
15:39 22.7 17.2 71 1021.3
15:50 22.7 17.2 71 1021.1
16:00 22.6 17.1 71 1021.2
16:10 22.6 17.1 71 1021.2
16:19 22.6 17.1 71 1021.2
16:30 22.6 17.3 72 1021.2
16:40 22.6 17.1 71 1021.2
16:50 22.6 17.3 72 1021.2
17:00 22.6 17.1 71 1021.1
17:10 22.7 17.2 71 1021.2
17:20 22.7 17 70 1021.1
17:30 22.7 17.4 72 1021.1
17:41 22.7 17.4 72 1021
17:51 22.7 17.2 71 1021
18:00 22.7 17.4 72 1021.1
18:11 22.7 17.2 71 1021
18:21 22.7 17.2 71 1021
18:31 22.7 17.4 72 1020.9
18:41 22.8 17.3 71 1020.9
18:51 22.8 17.3 71 1020.8
19:01 22.8 17.3 71 1020.8
19:11 22.8 17.3 71 1020.9
19:21 22.8 17 70 1020.9
19:31 22.8 17.3 71 1021
19:41 22.8 17.3 71 1021.1
19:51 22.7 17.4 72 1021.1
20:02 22.7 17 70 1021.4
20:12 22.7 17 70 1021.5
20:32 22.6 17.1 71 1021.5
20:42 22.6 17.1 71 1021.6
20:52 22.5 17 71 1021.6
21:02 22.5 17 71 1021.7
21:13 22.4 16.9 71 1021.7
21:22 22.4 16.9 71 1021.8
21:32 22.3 16.8 71 1021.8
21:42 22.3 16.8 71 1021.9
21:53 22.3 16.8 71 1021.9
22:03 22.3 16.8 71 1022
22:12 22.2 16.7 71 1022.1
22:23 22.2 16.7 71 1022.1
22:33 22.2 16.7 71 1022.3
22:43 22.2 16.7 71 1022.3
22:53 22.1 15.9 68 1022.5
23:13 22 15.6 67 1022.6
23:23 21.9 15.5 67 1022.7
23:34 21.8 15.4 67 1022.7
23:44 21.7 15.3 67 1022.8
23:53 21.7 15.5 68 1022.8

SATISTIQUES DU JOUR

2021-06-21
TEMPÉRATURE
MOYEN
22.1
MAXI
22.8
18:41
MINI
21.1
07:06
PRESSION
MOYEN
1020.7
MAXI
1022.8
23:44
MINI
1019.1
03:44
POINT DE ROSÉE
MOYEN
16.4
MAXI
18.0
00:02
MINI
14.7
07:06
HUMIDITÉ
MOYEN
70
MAXI
75
00:02
MINI
67
03:34
TEMPÉRATURE (°C)
MINI
21.1
MAXI
22.8
MOYEN
22.1
PRESSION (hpa)
MINI
1019.1
MAXI
1022.8
MOYEN
1020.7
DEVICE